Regional Weather Roundup
Issued by NWS

Home | Current Version | Previous Version | Text Only | Print | Product List | Glossary Off
Versions: 1 2 3 4 5 6 7 8 9 10 11 12 13 14 15 16 17 18 19 20 21 22 23 24 25 26 27 28 29 30 31 32 33 34 35 36 37 38 39 40 41 42 43 44 45 46 47 48 49 50

000
ASUS43 KBIS 261531
RWRND
NORTH DAKOTA REGIONAL WEATHER ROUNDUP
NATIONAL WEATHER SERVICE EASTERN NORTH DAKOTA/GRAND FORKS ND
1000 AM CDT FRI MAY 26 2017

  NOTE: "FAIR" INDICATES FEW OR NO CLOUDS BELOW 12,000 FEET WITH NO
  SIGNIFICANT WEATHER AND/OR OBSTRUCTIONS TO VISIBILITY.

NDZ001>003-009>011-017-261600-
...NORTHWEST NORTH DAKOTA...

CITY           SKY/WX    TMP DP  RH WIND       PRES   REMARKS
WILLISTON      CLOUDY    55  42  61 NW21G29   29.76R
MINOT          CLOUDY    56  43  61 W25G33    29.68R
MINOT AFB      CLOUDY    54  45  71 W21G29    29.67R
$$

NDZ018>021-031>035-040>046-261600-
...SOUTHWEST NORTH DAKOTA...

CITY           SKY/WX    TMP DP  RH WIND       PRES   REMARKS
BISMARCK       CLOUDY    56  40  55 W20G26    29.77R
DICKINSON      PTSUNNY   53  37  54 NW28G36   29.78S
GARRISON         N/A     53  41  63 W22       29.72R
HETTINGER      FAIR      56  37  49 NW29G40   29.82F
$$

NDZ004>008-012>016-024-026-027-054-261600-
...NORTHEAST NORTH DAKOTA...

CITY           SKY/WX    TMP DP  RH WIND       PRES   REMARKS
GRAND FORKS    FAIR      65  50  58 W10       29.63S
GRAND FORKS AF FAIR      64  49  59 W12       29.64R
DEVILS LAKE    PTSUNNY   57  45  62 W20G26    29.67S
$$

NDZ022-023-025-028>030-036>039-047>053-261600-
...SOUTHEAST NORTH DAKOTA...

CITY           SKY/WX    TMP DP  RH WIND       PRES   REMARKS
JAMESTOWN      FAIR      59  45  59 W18G26    29.70S
FARGO          FAIR      64  49  57 W8        29.67S
WAHPETON       FAIR      63  46  55 W12       29.72R
$$




USA.gov is the U.S. government's official web portal to all federal, state and local government web resources and services.